This is the latest recevied weather packets stored in our database for station/object W5DRO-13. If no packets are shown the sender has not sent any weather packets the latest 10 day(s).
| Time | Temp. | Humidity | Pressure | Rain* | Wind** | Luminosity | Snow |
|---|---|---|---|---|---|---|---|
| 1777818480 | 18.33° C | 61% | 1018.5 hPa | 0 mm | - | - | - |
| 1777818177 | 17.78° C | 62% | 1018.4 hPa | 0 mm | - | - | - |
| 1777817874 | 17.22° C | 65% | 1018.6 hPa | 0 mm | - | - | - |
| 1777817572 | 17.22° C | 65% | 1018.5 hPa | 0 mm | - | - | - |
| 1777817268 | 16.67° C | 67% | 1018.7 hPa | 0 mm | - | - | - |
| 1777816965 | 16.67° C | 67% | 1018.6 hPa | 0 mm | - | - | - |
| 1777816662 | 16.11° C | 69% | 1018.7 hPa | 0 mm | - | - | - |
| 1777816359 | 15.56° C | 70% | 1018.4 hPa | 0 mm | - | - | - |
| 1777816056 | 15.56° C | 71% | 1018.5 hPa | 0 mm | - | - | - |
| 1777815753 | 15° C | 72% | 1018.5 hPa | 0 mm | - | - | - |
| 1777815451 | 14.44° C | 74% | 1018.6 hPa | 0 mm | - | - | - |
| 1777815148 | 14.44° C | 76% | 1018.7 hPa | 0 mm | - | - | - |
| 1777814845 | 13.89° C | 77% | 1018.6 hPa | 0 mm | - | - | - |
| 1777814541 | 13.33° C | 78% | 1018.6 hPa | 0 mm | - | - | - |
| 1777814238 | 13.33° C | 79% | 1018.6 hPa | 0 mm | - | - | - |
| 1777813935 | 12.78° C | 80% | 1018.5 hPa | 0 mm | - | - | - |
| 1777813633 | 12.78° C | 80% | 1018.4 hPa | 0 mm | - | - | - |
| 1777813330 | 12.22° C | 81% | 1018.6 hPa | 0 mm | - | - | - |
| 1777813027 | 11.67° C | 82% | 1018.5 hPa | 0 mm | - | - | - |
| 1777812725 | 11.67° C | 82% | 1018.6 hPa | 0 mm | - | - | - |
| 1777812421 | 11.11° C | 83% | 1018.7 hPa | 0 mm | - | - | - |
| 1777812119 | 11.11° C | 84% | 1018.5 hPa | 0 mm | - | - | - |
| 1777811817 | 10.56° C | 85% | 1018.5 hPa | 0 mm | - | - | - |
| 1777811515 | 10.56° C | 86% | 1018.6 hPa | 0 mm | - | - | - |
| 1777811210 | 10° C | 88% | 1018.5 hPa | 0 mm | - | - | - |
* Rain latest hour (hover to see other rain measurements)
** Current wind speed in m/s (hover to see current wind gust speed)